Dalzell, IL

3:10 AM CST on December 10, 2016 (GMT -0600)
Illinois Valley Regional-Duncan

Weather History for KVYS - January, 2014

Change the Weather History Date:

Tuesday, January 28, 2014

  Actual Average Record
Temperature  
Mean Temperature -1 °F -  
Max Temperature 8 °F 29 °F 60 °F (2002)
Min Temperature -10 °F 11 °F -15 °F (1977)
Degree Days  
Heating Degree Days 66    
Moisture  
Dew Point -9 °F    
Average Humidity 67    
Maximum Humidity 75    
Minimum Humidity 56    
Precipitation  
Precipitation 0.00 in - - ()
Sea Level Pressure  
Sea Level Pressure 30.38 in    
Wind  
Wind Speed 9 mph (WSW)    
Max Wind Speed 17 mph    
Max Gust Speed 22 mph    
Visibility 10 miles    
Events      
Averages and records for this station are not official NWS values.
T = Trace of Precipitation, MM = Missing Value Source: NWS Daily Summary

Daily Weather History Graph

Daily Weather History Graph

Search for Another Location

Airport or City:

Trip Planner

Search our weather history database for the weather conditions in past years. The results will help you decide how hot, cold, wet, or windy it might be!

Date:

Astronomy

Jan. 28, 2014 Rise Set
Actual Time 7:11 AM CST 5:07 PM CST
Civil Twilight 6:42 AM CST 5:37 PM CST
Nautical Twilight 6:08 AM CST 6:10 PM CST
Astronomical Twilight 5:36 AM CST 6:43 PM CST
Moon 4:53 AM CST (1/28) 2:57 PM CST (1/28)
Length of Visible Light 10h 55m
Length of Day
9h 56m
Waning Crescent, 7% of the Moon is Illuminated
Jan 28
Waning Crescent
Jan 30
New
Feb 6
First Quarter
Feb 14
Full
Feb 22
Last Quarter

Hourly Weather History & Observations

Time (CST) Temp. Windchill Dew Point Humidity Pressure Visibility Wind Dir Wind Speed Gust Speed Precip Events Conditions
12:15 AM -5.8 °F -22.4 °F -14.3 °F 67% 30.46 in 10.0 mi WNW 9.2 mph - N/A   Clear
12:35 AM -6.7 °F -21.0 °F -15.0 °F 67% 30.46 in 10.0 mi West 6.9 mph - N/A   Clear
12:55 AM -6.2 °F -23.9 °F -14.1 °F 69% 30.45 in 10.0 mi WNW 10.4 mph - N/A   Clear
1:15 AM -6.7 °F -23.5 °F -14.4 °F 69% 30.45 in 10.0 mi WNW 9.2 mph - N/A   Clear
1:35 AM -6.0 °F -22.6 °F -13.5 °F 70% 30.45 in 10.0 mi WNW 9.2 mph - N/A   Clear
1:55 AM -6.2 °F -20.4 °F -13.7 °F 70% 30.44 in 10.0 mi WNW 6.9 mph - N/A   Clear
2:15 AM -7.6 °F -23.4 °F -14.8 °F 71% 30.45 in 10.0 mi West 8.1 mph - N/A   Clear
2:35 AM -8.5 °F -24.5 °F -15.0 °F 73% 30.45 in 10.0 mi West 8.1 mph - N/A   Clear
2:55 AM -7.6 °F -23.4 °F -14.6 °F 71% 30.44 in 10.0 mi West 8.1 mph - N/A   Clear
3:15 AM -8.1 °F -25.3 °F -14.8 °F 73% 30.43 in 10.0 mi West 9.2 mph - N/A   Clear
3:35 AM -8.1 °F -25.3 °F -15.0 °F 72% 30.43 in 10.0 mi West 9.2 mph - N/A   Clear
3:55 AM -8.5 °F -23.2 °F -15.2 °F 73% 30.42 in 10.0 mi West 6.9 mph - N/A   Clear
4:15 AM -7.8 °F -23.6 °F -14.3 °F 73% 30.42 in 10.0 mi WNW 8.1 mph - N/A   Clear
4:35 AM -7.2 °F -21.7 °F -14.8 °F 70% 30.42 in 10.0 mi WNW 6.9 mph - N/A   Clear
4:55 AM -8.5 °F -21.6 °F -15.7 °F 71% 30.44 in 10.0 mi SW 5.8 mph - N/A   Clear
5:15 AM -8.7 °F -23.4 °F -15.7 °F 71% 30.44 in 10.0 mi WSW 6.9 mph - N/A   Clear
5:35 AM -8.9 °F -23.6 °F -15.2 °F 74% 30.44 in 10.0 mi West 6.9 mph - N/A   Clear
5:55 AM -9.4 °F -25.6 °F -15.7 °F 74% 30.44 in 10.0 mi West 8.1 mph - N/A   Clear
6:15 AM -9.6 °F -24.5 °F -15.9 °F 74% 30.44 in 10.0 mi West 6.9 mph - N/A   Clear
6:35 AM -9.4 °F -24.3 °F -15.3 °F 75% 30.44 in 10.0 mi West 6.9 mph - N/A   Clear
6:55 AM -9.9 °F -23.4 °F -16.1 °F 74% 30.45 in 10.0 mi West 5.8 mph - N/A   Clear
7:15 AM -10.1 °F -25.1 °F -16.1 °F 75% 30.45 in 10.0 mi WSW 6.9 mph - N/A   Clear
7:35 AM -9.6 °F -24.5 °F -15.7 °F 74% 30.45 in 10.0 mi West 6.9 mph - N/A   Clear
7:55 AM -8.3 °F -25.5 °F -14.8 °F 73% 30.45 in 10.0 mi West 9.2 mph - N/A   Clear
8:15 AM -6.0 °F -22.6 °F -13.0 °F 72% 30.46 in 10.0 mi West 9.2 mph - N/A   Clear
8:35 AM -4.9 °F -20.1 °F -12.3 °F 71% 30.46 in 10.0 mi WSW 8.1 mph - N/A   Clear
8:55 AM -3.8 °F -21.0 °F -11.9 °F 68% 30.46 in 10.0 mi West 10.4 mph - N/A   Clear
9:15 AM -3.1 °F -20.1 °F -11.2 °F 68% 30.45 in 10.0 mi West 10.4 mph - N/A   Clear
9:35 AM -2.0 °F -18.7 °F -10.3 °F 68% 30.45 in 10.0 mi West 10.4 mph - N/A   Clear
9:55 AM -0.8 °F -17.2 °F -9.6 °F 66% 30.45 in 10.0 mi WSW 10.4 mph - N/A   Clear
10:15 AM 0.5 °F -14.6 °F -9.0 °F 64% 30.45 in 10.0 mi WSW 9.2 mph - N/A   Clear
10:35 AM 1.4 °F -14.5 °F -8.3 °F 64% 30.45 in 10.0 mi West 10.4 mph - N/A   Clear
10:55 AM 2.3 °F -16.4 °F -8.0 °F 62% 30.44 in 10.0 mi West 15.0 mph - N/A   Clear
11:15 AM 3.0 °F -16.7 °F -7.6 °F 61% 30.43 in 10.0 mi West 17.3 mph - N/A   Clear
11:35 AM 4.1 °F -12.7 °F -6.0 °F 63% 30.41 in 10.0 mi West 12.7 mph - N/A   Clear
11:55 AM 5.0 °F -10.0 °F -5.4 °F 62% 30.40 in 10.0 mi West 10.4 mph 19.6 mph N/A   Clear
12:15 PM 5.5 °F -11.6 °F -5.6 °F 60% 30.39 in 10.0 mi West 13.8 mph 21.9 mph N/A   Clear
12:35 PM 5.9 °F -10.5 °F -5.1 °F 61% 30.38 in 10.0 mi West 12.7 mph - N/A   Clear
12:55 PM 6.6 °F -10.2 °F -4.5 °F 60% 30.38 in 10.0 mi West 13.8 mph 19.6 mph N/A   Clear
1:15 PM 6.8 °F -8.6 °F -4.2 °F 61% 30.37 in 10.0 mi West 11.5 mph 18.4 mph N/A   Clear
1:35 PM 7.3 °F -7.9 °F -4.0 °F 60% 30.36 in 10.0 mi West 11.5 mph - N/A   Clear
1:55 PM 7.5 °F -8.4 °F -4.0 °F 59% 30.35 in 10.0 mi West 12.7 mph - N/A   Clear
2:15 PM 7.7 °F -10.1 °F -4.0 °F 59% 30.34 in 10.0 mi West 16.1 mph - N/A   Clear
2:35 PM 8.1 °F -9.6 °F -4.2 °F 58% 30.34 in 10.0 mi West 16.1 mph - N/A   Clear
2:55 PM 8.2 °F -8.8 °F -4.5 °F 56% 30.33 in 10.0 mi West 15.0 mph 19.6 mph N/A   Clear
3:15 PM 8.2 °F -6.8 °F -4.5 °F 56% 30.33 in 10.0 mi West 11.5 mph 16.1 mph N/A   Clear
3:35 PM 8.4 °F -7.3 °F -4.0 °F 57% 30.33 in 10.0 mi West 12.7 mph - N/A   Clear
3:55 PM 8.6 °F -5.5 °F -3.8 °F 57% 30.32 in 10.0 mi West 10.4 mph - N/A   Clear
4:15 PM 8.4 °F -8.6 °F -4.2 °F 57% 30.32 in 10.0 mi West 15.0 mph - N/A   Clear
4:35 PM 8.1 °F -6.2 °F -4.0 °F 58% 30.32 in 10.0 mi West 10.4 mph - N/A   Clear
4:55 PM 7.7 °F -5.8 °F -4.0 °F 59% 30.32 in 10.0 mi West 9.2 mph - N/A   Clear
5:15 PM 6.4 °F -5.2 °F -4.4 °F 61% 30.31 in 10.0 mi WSW 6.9 mph - N/A   Clear
5:35 PM 5.0 °F -5.6 °F -4.9 °F 64% 30.31 in 10.0 mi WSW 5.8 mph - N/A   Clear
5:55 PM 5.2 °F -3.8 °F -4.7 °F 64% 30.31 in 10.0 mi WSW 4.6 mph - N/A   Clear
6:15 PM 5.7 °F -4.8 °F -4.0 °F 64% 30.31 in 10.0 mi SW 5.8 mph - N/A   Clear
6:35 PM 4.6 °F -6.0 °F -4.5 °F 66% 30.30 in 10.0 mi SSW 5.8 mph - N/A   Clear
6:55 PM 4.3 °F -7.8 °F -4.2 °F 68% 30.29 in 10.0 mi SW 6.9 mph - N/A   Clear
7:15 PM 4.6 °F -6.0 °F -3.8 °F 68% 30.29 in 10.0 mi SW 5.8 mph - N/A   Clear
7:35 PM 4.1 °F -8.0 °F -4.0 °F 69% 30.28 in 10.0 mi SW 6.9 mph - N/A   Clear
7:55 PM 4.5 °F -7.6 °F -3.6 °F 69% 30.28 in 10.0 mi SSW 6.9 mph - N/A   Clear
8:15 PM 4.3 °F -7.8 °F -3.8 °F 69% 30.28 in 10.0 mi SSW 6.9 mph - N/A   Clear
8:35 PM 4.1 °F -9.2 °F -3.5 °F 71% 30.28 in 10.0 mi SW 8.1 mph - N/A   Clear
8:55 PM 3.6 °F -9.8 °F -4.0 °F 71% 30.28 in 10.0 mi SW 8.1 mph - N/A   Clear
9:15 PM 4.1 °F -9.2 °F -3.3 °F 71% 30.28 in 10.0 mi SW 8.1 mph - N/A   Clear
9:35 PM 3.6 °F -8.7 °F -3.5 °F 73% 30.28 in 10.0 mi SW 6.9 mph - N/A   Clear
9:55 PM 4.1 °F -8.0 °F -3.1 °F 72% 30.28 in 10.0 mi SW 6.9 mph - N/A   Clear
10:15 PM 3.0 °F -10.5 °F -3.5 °F 74% 30.28 in 10.0 mi SW 8.1 mph - N/A   Clear
10:35 PM 2.3 °F -12.4 °F -4.2 °F 74% 30.27 in 10.0 mi SW 9.2 mph - N/A   Clear
10:55 PM 2.8 °F -10.7 °F -4.0 °F 73% 30.27 in 10.0 mi SW 8.1 mph - N/A   Clear
11:15 PM 2.8 °F -10.7 °F -4.0 °F 73% 30.26 in 10.0 mi SW 8.1 mph - N/A   Clear
11:35 PM 2.8 °F -11.7 °F -4.0 °F 73% 30.26 in 10.0 mi SW 9.2 mph - N/A   Clear
11:55 PM 2.3 °F -12.4 °F -4.2 °F 74% 30.25 in 10.0 mi SW 9.2 mph - N/A   Clear